User: anonymous   Login
Location: Caltech
(34.1382°N, 118.1253°W)
Time: 01:32:51
(UTC-07:00)
Language:

FENGYUN 3A - Orbit

View from above orbital plane
View from above orbital plane
View from above satellite
View from above satellite

Ground track
Ground track

The orbit data is extracted from the following two-line orbital elements,

1 32958U 08026A   16209.72370940  .00000018  00000-0  27855-4 0  9993
2 32958  98.4491 247.9365 0010280 136.1756 224.0237 14.19625520423307
Epoch (UTC): 27 July 2016 17:22:08
Eccentricity: 0.0010280
inclination: 98.4491°
perigee height: 819 km
apogee height: 834 km
right ascension of ascending node: 247.9365°
argument of perigee: 136.1756°
revolutions per day: 14.19625520
mean anomaly at epoch: 224.0237°
orbit number at epoch: 42330

The dashed part of the orbit path shows where the satellite is in the earth's shadow,  

DLR